TimeMST,TemperatureF,Dew PointF,Humidity,Sea Level PressureIn,VisibilityMPH,Wind Direction,Wind SpeedMPH,Gust SpeedMPH,PrecipitationIn,Events,Conditions,WindDirDegrees,DateUTC
12:15 AM,-0.4,-2.2,92,30.31,10.0,NNE,5.8,-,N/A,,Clear,20,2013-01-23 07:15:00
12:35 AM,-2.2,-4.0,92,30.31,10.0,North,8.1,-,N/A,,Clear,360,2013-01-23 07:35:00
12:55 AM,-4.0,-5.8,92,30.30,10.0,North,8.1,-,N/A,,Clear,10,2013-01-23 07:55:00
1:15 AM,-2.2,-4.0,92,30.30,10.0,NNE,5.8,-,N/A,,Clear,30,2013-01-23 08:15:00
1:35 AM,-0.4,-2.2,92,30.30,10.0,NNE,5.8,-,N/A,,Clear,20,2013-01-23 08:35:00
1:55 AM,1.4,-0.4,92,30.31,10.0,NNE,8.1,-,N/A,,Clear,20,2013-01-23 08:55:00
2:15 AM,-0.4,-0.4,100,30.31,10.0,North,9.2,-,N/A,,Clear,10,2013-01-23 09:15:00
2:35 AM,1.4,-0.4,92,30.31,10.0,North,8.1,-,N/A,,Clear,10,2013-01-23 09:35:00
2:55 AM,-0.4,-2.2,92,30.31,10.0,North,6.9,-,N/A,,Clear,360,2013-01-23 09:55:00
3:55 AM,-4.0,-5.8,92,30.30,10.0,North,8.1,-,N/A,,Clear,10,2013-01-23 10:55:00
4:35 AM,-2.2,-5.8,85,30.29,10.0,NNE,4.6,-,N/A,,Clear,30,2013-01-23 11:35:00
4:55 AM,-2.2,-2.2,100,30.30,10.0,NNE,4.6,-,N/A,,Clear,30,2013-01-23 11:55:00
5:35 AM,-5.8,-7.6,92,30.31,10.0,North,6.9,-,N/A,,Clear,10,2013-01-23 12:35:00
5:55 AM,-5.8,-7.6,92,30.32,10.0,North,6.9,-,N/A,,Clear,10,2013-01-23 12:55:00
6:35 AM,-5.8,-7.6,92,30.31,10.0,NNE,5.8,-,N/A,,Clear,30,2013-01-23 13:35:00
6:51 AM,-5.8,-7.6,92,30.31,10.0,North,8.1,-,N/A,,Clear,360,2013-01-23 13:51:00
7:58 AM,-5.8,-7.6,92,30.30,10.0,North,6.9,-,N/A,,Clear,350,2013-01-23 14:58:00
8:59 AM,-5.8,-7.6,92,30.30,10.0,North,3.5,-,N/A,,Clear,10,2013-01-23 15:59:00
9:51 AM,1.4,-0.4,92,30.32,10.0,NE,3.5,-,N/A,,Clear,40,2013-01-23 16:51:00
10:54 AM,6.8,5.0,92,30.31,10.0,Calm,Calm,-,N/A,,Clear,0,2013-01-23 17:54:00
11:51 AM,6.8,5.0,92,30.29,10.0,Calm,Calm,-,N/A,,Clear,0,2013-01-23 18:51:00
12:54 PM,10.4,6.8,85,30.26,10.0,Calm,Calm,-,N/A,,Clear,0,2013-01-23 19:54:00
1:51 PM,14.0,8.6,79,30.24,10.0,Calm,Calm,-,N/A,,Clear,0,2013-01-23 20:51:00
2:51 PM,14.0,8.6,79,30.21,10.0,Calm,Calm,-,N/A,,Clear,0,2013-01-23 21:51:00
3:51 PM,12.2,8.6,85,30.20,10.0,Calm,Calm,-,N/A,,Clear,0,2013-01-23 22:51:00
4:51 PM,12.2,8.6,85,30.21,10.0,Calm,Calm,-,N/A,,Clear,0,2013-01-23 23:51:00
5:53 PM,12.2,8.6,85,30.21,10.0,Calm,Calm,-,N/A,,Clear,0,2013-01-24 00:53:00
6:51 PM,12.2,8.6,85,30.20,10.0,Calm,Calm,-,N/A,,Scattered Clouds,0,2013-01-24 01:51:00
7:51 PM,10.4,8.6,92,30.19,10.0,Calm,Calm,-,N/A,,Scattered Clouds,0,2013-01-24 02:51:00
8:51 PM,6.8,3.2,85,30.17,10.0,North,3.5,-,N/A,,Scattered Clouds,350,2013-01-24 03:51:00
8:55 PM,6.8,3.2,85,30.18,10.0,Calm,Calm,-,N/A,,Clear,0,2013-01-24 03:55:00
9:15 PM,1.4,1.4,100,30.18,10.0,North,5.8,-,N/A,,Clear,10,2013-01-24 04:15:00
9:35 PM,1.4,1.4,100,30.18,10.0,North,8.1,-,N/A,,Clear,10,2013-01-24 04:35:00
9:55 PM,1.4,1.4,100,30.18,10.0,North,5.8,-,N/A,,Clear,10,2013-01-24 04:55:00
10:15 PM,1.4,-0.4,92,30.18,10.0,NNE,4.6,-,N/A,,Clear,30,2013-01-24 05:15:00
10:35 PM,3.2,3.2,100,30.19,10.0,North,4.6,-,N/A,,Mostly Cloudy,360,2013-01-24 05:35:00
10:55 PM,5.0,3.2,92,30.18,10.0,NNE,3.5,-,N/A,,Overcast,20,2013-01-24 05:55:00
11:15 PM,5.0,3.2,92,30.17,10.0,NNE,6.9,-,N/A,,Mostly Cloudy,20,2013-01-24 06:15:00
11:55 PM,3.2,1.4,92,30.17,10.0,NNE,6.9,-,N/A,,Partly Cloudy,30,2013-01-24 06:55:00